星链-3790 (STARLINK-3790 )

导读

STARLINK-3790是美国SpaceX公司星链(Starlink)卫星互联网项目的一员,于2022年4月21日发射升空,属于星链低轨星座组网卫星。 该卫星运行于近地轨道,旨在为全球提供高速低延迟宽带互联网服务,尤其覆盖偏远地区和地面网络未覆盖区域。作为星链大规模星座计划的组成部分,它助力星链实现全球通信覆盖,推动卫星互联网商业化进程。

Basic Information
目录编号:
52274
目录名称:
STARLINK-3790
国际标识:
2022-041P
轨道中心:
EARTH
卫星名称:
星链-3790
卫星全名:
星链-3790 (STARLINK-3790 )
卫星状态:
在轨 (已飞行1518 天)
发射日期:
2022-04-21 UTC
国别 :
美国 (US)
星等 :
--
Orbit Information
数据来源 国际轨道数据 AOE轨道数据
星历时间 2026-06-17T05:40:01+0800
20小时前
查看轨道信息
2026-06-15T17:00:00+0800
2天前
查看轨道信息
半长轴 6918.004km 6917.876km
偏心率 0.000121 0.0001473
轨道倾角 53.161° 53.159°
近地点辐角 94.511° 89.020°
升交点赤经 23.642° 30.508°
平近点角 265.602° 248.122°
近地点 539.029km 538.719km
远地点 540.705km 540.759km
周期 95.440分钟 95.437分钟
每日圈数 15.087997 15.088415
Detailed Information
固有亮度:
5
最大亮度:
2.5
卫星平台:
Starlink v1.5
覆盖范围:
全球
运营商:
太空探索技术公司
运营商所在国:
美国
制造商(研发单位):
太空探索技术公司
制造商所在国:
美国
使用方式:
暂无
Satellite Introduction
星链(Starlink)计划是由太空探索技术公司(SpaceX)提出的一个巨型低轨卫星互联网星座项目,计划在2019年至2024年间在太空搭建由约1.2万颗卫星组成的“星链”网络,其中1584颗将部署在地球上空550千米处的近地轨道,并从2020年开始工作。该卫星仍在工作。
2D Orbit Map
3D Orbit Map
Orbit Altitude Analysis Chart
Orbit Inclination Analysis Chart
Orbit Comprehensive Analysis Chart
View Comprehensive Chart